Dewpoint
58 58 58 58 58 58 59 59 58 58 57 55 56 55 54 50 48 47 47 47 47 47 46 46 46 45 45 45 45 45 45 46 47 47 46 47 48 48 47 48 48 49 50 50 51 51 51 50 50 49 49 49 49 50 49 47 48 49 49 49 48 48 49 49 48 48 49 48 47
58 58 57 56 55 57 58 59 58 59 58 56 54 52 50 49 48 47 47 47 47 46 46 45 45 45 46 46 46 46 46 47 48 48 48 48 47 47 47 48 48 49 49 49 50 50 50 50 50 49 48 48 49 49 48 46 46 47 48 48 48 48 48 48 48 49 49 48 48
58 58 57 55 54 54 54 55 57 56 55 53 51 50 49 48 48 47 47 47 46 46 46 45 44 45 46 47 48 47 48 48 48 49 49 49 48 48 48 48 49 48 48 49 49 50 50 50 49 48 47 47 48 48 48 48 47 48 48 48 47 47 47 47 48 48 48 48 48
58 57 55 53 52 52 51 52 53 53 51 49 48 47 47 48 47 47 47 47 46 46 45 45 44 45 46 47 48 49 48 47 48 49 49 49 49 49 49 49 50 50 49 49 49 49 50 50 49 48 47 47 47 47 48 48 47 47 48 48 47 47 46 46 47 47 47 47 47
57 55 53 51 51 50 50 50 50 50 48 46 46 46 46 46 46 46 46 45 45 46 46 45 45 45 45 47 48 49 49 48 46 48 50 50 50 50 50 50 50 50 49 49 49 50 50 51 50 49 48 48 47 46 46 47 47 47 47 47 47 47 47 46 46 46 46 46 46
54 52 50 49 49 49 48 48 48 47 46 45 45 45 45 45 46 46 46 45 46 47 47 45 44 44 45 48 48 49 49 50 49 49 49 48 50 50 50 50 50 49 49 49 50 50 50 50 49 48 48 48 45 46 47 48 47 46 46 46 47 47 47 46 46 46 45 45 45
50 48 47 47 47 47 46 46 46 46 46 45 46 46 45 45 45 46 46 46 47 47 46 44 44 45 46 47 48 49 50 50 50 50 49 49 50 50 49 50 48 48 49 49 49 50 49 48 48 48 46 46 46 46 46 47 47 47 46 45 46 46 46 45 45 45 45 44 44
46 46 45 45 45 45 45 45 45 46 46 45 45 46 46 45 45 46 47 47 47 46 46 45 46 47 47 47 47 48 49 48 49 50 50 50 50 50 48 48 47 47 47 47 48 49 49 49 48 48 47 46 46 46 46 45 46 46 45 45 46 46 45 44 44 44 44 44 43
45 45 45 45 45 45 45 44 45 45 45 45 45 46 48 48 46 46 47 47 46 46 45 45 46 47 48 47 47 47 48 47 48 49 50 50 49 48 48 47 47 47 47 47 47 47 48 48 48 48 47 46 46 45 45 45 45 45 45 46 46 46 45 45 44 44 44 43 43
45 45 46 46 46 45 45 44 44 45 45 45 45 47 48 46 46 47 47 45 45 46 46 46 47 47 48 47 47 47 47 47 47 48 48 48 48 48 47 47 47 46 47 47 47 47 47 48 47 46 46 46 46 45 45 45 44 44 45 46 45 45 45 45 44 44 43 42 42
46 46 46 46 47 45 45 44 44 44 44 44 45 46 47 45 47 47 46 45 46 46 46 46 47 47 48 47 47 47 47 47 47 47 48 48 47 47 47 47 46 46 46 46 47 47 47 47 46 45 45 46 46 45 45 45 44 44 44 45 45 44 44 44 44 43 42 41 41
47 46 46 47 46 46 45 44 43 43 43 43 43 44 45 46 47 47 46 46 48 47 46 47 47 48 47 47 47 47 47 48 47 47 47 47 47 47 47 47 46 46 46 46 47 46 46 46 45 45 45 46 46 45 45 45 44 44 44 45 45 44 43 43 42 41 41 40 40
47 47 47 47 47 47 46 45 44 43 42 42 43 44 45 45 46 46 46 47 48 47 47 47 48 48 47 47 48 48 48 48 48 47 47 47 47 47 47 46 46 46 46 46 47 47 46 46 45 45 45 45 45 46 46 45 44 44 44 44 44 44 44 43 42 41 41 40 39
48 48 48 48 48 48 47 46 45 44 43 43 44 44 45 45 46 46 46 47 47 47 47 47 47 47 48 48 48 48 48 48 48 47 47 46 47 47 46 46 46 46 46 47 47 47 46 46 45 45 45 45 45 46 47 46 45 44 44 44 44 44 44 43 42 41 40 40 39
49 49 49 49 49 49 48 47 46 45 45 45 45 45 45 45 45 46 46 47 47 47 47 47 47 47 48 49 48 48 48 48 48 47 47 47 47 47 47 47 46 46 47 47 47 47 47 46 45 45 45 45 45 46 46 46 45 45 44 44 44 44 44 44 42 41 40 40 39
49 50 50 50 50 50 50 49 48 47 46 45 45 45 45 45 46 47 47 47 47 47 47 46 46 47 49 49 49 48 48 48 49 50 50 51 52 51 50 49 48 48 48 47 48 48 48 48 47 47 46 45 45 45 46 46 46 45 45 45 45 45 44 43 42 41 41 41 39
49 49 50 50 50 50 50 50 49 48 47 47 46 46 46 46 47 47 47 47 47 47 46 46 46 48 49 49 49 50 50 50 51 54 57 58 58 58 56 53 51 50 50 49 48 48 48 48 49 48 48 47 46 45 45 46 46 46 46 45 45 44 43 42 41 41 41 41 39
49 49 49 49 49 49 50 50 49 48 48 47 47 47 47 47 48 48 48 48 48 48 47 46 47 48 49 50 50 50 50 51 51 54 56 57 58 59 59 56 54 52 50 49 48 47 47 47 48 48 48 48 47 46 46 46 46 46 46 45 45 44 43 42 42 42 42 41 39
48 48 48 48 48 49 49 49 48 48 48 48 48 48 48 48 48 49 49 50 50 49 48 47 47 49 50 50 51 51 50 52 52 53 53 54 57 58 59 57 55 53 51 50 48 47 47 47 48 49 49 48 47 48 48 48 46 45 45 44 44 43 43 43 43 42 41 41 40
47 47 47 47 48 48 48 48 48 48 48 48 48 48 48 48 48 49 49 50 50 50 50 48 48 49 50 51 51 51 52 53 55 55 54 54 55 56 56 56 54 53 51 50 50 49 49 48 49 49 49 49 49 48 48 48 47 45 45 44 44 43 43 43 43 42 42 42 41
47 47 47 47 47 48 48 48 48 48 48 48 48 48 48 48 48 49 49 50 51 51 50 49 48 48 49 50 51 52 52 53 55 55 54 53 54 54 54 54 54 54 54 53 52 51 51 50 50 50 50 50 49 49 48 47 46 45 45 44 44 43 43 43 43 43 43 42 41
47 47 47 48 48 48 49 49 49 49 49 48 48 48 48 48 48 49 50 51 52 52 51 50 49 49 49 50 51 52 52 52 54 54 54 53 53 54 54 54 55 56 55 54 54 53 53 52 51 51 50 49 48 48 47 46 45 44 43 43 43 43 43 43 42 41 41 40 39
49 49 49 49 49 49 49 50 50 50 50 49 49 49 49 49 49 50 50 51 51 52 52 51 51 50 49 50 50 51 52 52 54 54 54 54 54 55 55 55 55 55 55 55 54 54 53 53 52 51 50 49 48 47 46 45 44 43 42 42 41 41 41 41 39 38 37 36 36
54 53 52 51 52 52 52 52 53 52 51 50 50 49 49 49 49 50 50 51 51 51 51 51 51 51 50 50 50 50 51 52 55 56 56 56 56 56 56 55 55 54 54 55 54 52 52 52 51 50 48 48 47 46 45 45 43 42 41 41 40 39 38 38 37 36 35 34 35
63 62 61 60 61 61 61 61 60 57 54 51 50 50 49 49 49 50 50 50 51 51 51 51 50 51 51 50 50 51 52 53 56 56 56 56 56 56 55 54 52 53 54 54 47 45 45 47 49 48 47 46 45 45 45 43 43 42 41 41 40 39 37 37 36 36 36 34 34
64 64 64 64 64 64 64 63 63 60 56 53 52 50 50 50 50 50 50 50 50 51 51 50 50 50 50 49 50 50 52 53 55 56 56 56 55 55 55 55 54 54 53 50 44 42 42 43 44 45 46 47 44 45 46 47 46 46 45 44 43 42 41 41 41 40 38 37 36
64 64 64 65 64 64 64 64 64 62 59 56 55 54 52 52 51 50 50 50 50 51 52 52 51 50 50 51 53 54 54 54 55 56 56 55 55 54 52 52 52 52 51 46 43 41 42 42 41 42 45 48 46 46 46 45 46 47 46 46 47 46 46 46 46 46 45 43 42
64 64 64 64 64 64 64 63 63 63 63 63 63 61 60 59 57 56 56 55 55 55 55 55 55 54 52 53 56 57 56 55 54 54 54 54 53 51 50 49 50 50 49 44 42 41 41 41 40 40 41 44 47 48 48 48 47 47 48 48 48 48 48 48 49 49 48 48 47
63 63 64 64 64 64 64 64 63 63 63 63 63 63 63 63 63 63 63 62 61 59 57 57 57 55 54 53 54 54 54 54 54 54 54 53 50 49 48 49 49 48 45 41 41 41 40 40 39 39 39 41 46 48 49 49 49 48 49 49 49 49 49 50 50 50 50 50 49
63 63 64 64 64 64 64 64 64 63 63 63 63 63 63 63 63 63 63 62 59 57 56 55 54 53 52 53 53 53 53 53 53 53 52 52 50 49 48 48 49 48 45 39 40 40 40 40 40 39 40 41 45 49 50 50 50 50 50 50 50 50 50 50 50 50 50 50 49
62 63 64 63 63 63 63 64 63 63 63 63 63 63 63 63 63 61 60 59 57 55 54 54 53 53 52 51 52 52 52 51 52 52 52 52 49 48 49 49 49 47 44 39 40 40 40 40 40 40 40 41 44 47 50 51 51 51 51 51 51 51 51 51 51 50 50 50 49
63 63 63 63 63 63 63 63 63 63 63 63 63 63 63 62 60 59 57 56 55 54 53 53 54 53 52 50 50 50 50 50 51 51 51 51 50 49 49 49 49 47 43 39 40 40 40 41 41 40 40 40 43 46 49 50 51 51 51 51 51 51 51 50 50 50 50 50 50
61 62 63 63 63 63 63 63 64 63 63 63 62 62 62 60 58 57 57 55 54 54 53 53 53 52 50 50 50 49 49 49 48 48 48 49 50 50 50 50 49 46 42 39 40 40 40 40 40 40 40 40 43 46 48 49 50 51 51 51 51 51 51 50 50 50 50 50 50
59 60 60 61 62 63 63 63 64 63 63 62 62 61 60 59 58 57 56 54 54 53 53 52 51 50 50 49 49 49 49 48 48 48 49 50 50 51 50 50 49 45 40 39 40 40 40 40 40 40 40 40 43 46 48 49 50 51 51 51 51 51 51 50 50 50 50 50 50
59 59 59 59 60 61 63 64 64 63 62 62 61 61 59 58 57 56 54 52 52 52 52 52 51 51 50 50 50 50 49 49 50 50 50 50 51 51 51 50 50 44 39 39 40 40 40 40 40 40 40 40 44 46 48 49 50 50 51 50 50 49 48 47 46 46 46 46 47
58 58 58 58 59 60 62 63 63 63 62 61 61 60 59 57 56 55 54 51 51 51 52 52 52 51 51 51 52 50 50 51 52 52 52 50 51 51 51 50 50 45 40 39 40 40 40 40 40 40 40 42 45 47 48 49 50 50 50 48 47 46 45 44 44 44 43 43 44
57 58 58 58 58 59 60 62 63 62 62 61 60 60 59 57 56 55 54 52 52 52 52 52 52 52 52 52 52 52 52 54 54 53 52 50 50 50 50 50 50 46 41 39 39 40 40 40 40 40 41 44 46 47 48 49 50 49 48 47 45 45 44 43 43 43 42 41 42
57 57 57 57 58 58 59 60 61 61 61 60 59 59 59 57 56 56 54 52 52 52 52 52 52 53 53 53 54 54 54 54 53 53 52 50 50 50 50 50 50 47 43 38 39 39 40 40 39 40 41 45 47 48 48 49 49 47 46 45 44 43 43 42 41 41 40 39 39
56 56 56 56 57 58 59 59 59 59 59 58 59 58 58 58 57 56 55 52 53 53 52 53 53 54 54 54 54 54 53 53 52 51 51 50 49 48 48 50 50 47 42 38 38 39 39 40 39 40 41 45 47 48 49 48 47 45 44 43 41 41 40 40 39 38 37 36 36
54 55 56 56 57 57 58 58 59 58 58 58 58 57 57 57 56 55 54 53 54 54 54 54 54 54 54 52 52 51 50 50 50 49 48 48 46 45 46 49 48 45 41 37 38 38 39 39 40 40 42 46 48 49 48 47 45 43 42 41 40 39 39 38 38 37 36 36 35
54 55 55 56 57 57 58 59 58 58 58 58 57 57 56 56 55 54 54 54 54 55 55 54 53 52 50 47 47 46 45 45 45 45 44 43 43 43 44 46 45 43 41 39 38 38 39 39 40 41 42 45 48 48 47 45 43 41 40 40 39 39 38 37 37 36 36 35 34